Regional Weather Roundup
Issued by NWS

Home | Current Version | Previous Version | Graphics & Text | Print | Product List | Glossary On
Versions: 1 2 3 4 5 6 7 8 9 10 11 12 13 14 15 16 17 18 19 20 21 22 23 24 25 26 27 28 29 30 31 32 33 34 35 36 37 38 39 40 41 42 43 44 45 46 47 48 49 50
000
ASUS43 KFSD 290510
RWRSD

WEATHER ROUNDUP FOR SOUTH DAKOTA
NATIONAL WEATHER SERVICE SIOUX FALLS SD
1200 AM CDT SUN MAY 29 2016

NOTE: "FAIR" INDICATES FEW OR NO CLOUDS BELOW 12,000 FEET WITH NO
SIGNIFICANT WEATHER AND/OR OBSTRUCTIONS TO VISIBILITY.


SDZ001>005-009-010-012>017-290600-
NORTHWEST AND NORTH CENTRAL SOUTH DAKOTA

CITY           SKY/WX    TMP DP  RH WIND       PRES   REMARKS
BUFFALO          N/A     56  42  59 N10       29.96R
FAITH            N/A     57  49  74 W5        29.99R
MOBRIDGE       CLEAR     55  52  89 NW3       29.93R
$$

SDZ012>016-024>037-041>051-057-063-072>074-290600-
SOUTHWEST AND SOUTH CENTRAL SOUTH DAKOTA

CITY           SKY/WX    TMP DP  RH WIND       PRES   REMARKS
RAPID CTY ARPT CLOUDY    52  46  80 NW10      30.03R
PIERRE         CLEAR     56  53  90 W5        29.94S
CUSTER         CLEAR     45  41  86 NW6       30.12R
ELLSWORTH AFB  CLOUDY    51  48  88 W8        30.03R
PHILIP         PTCLDY    54  51  90 CALM      29.99R
PINE RIDGE     CLEAR     47  45  93 SW5       30.06R
WINNER         FAIR      61  55  81 S5        29.97F
$$

SDZ004>011-016>023-039-040-290600-
NORTHEAST SOUTH DAKOTA

CITY           SKY/WX    TMP DP  RH WIND       PRES   REMARKS
ABERDEEN       CLOUDY    60  55  83 W6        29.90F
WATERTOWN      PTCLDY    59  55  87 W8        29.91S
BROOKINGS      CLOUDY    58  57  97 W8        29.92R
SISSETON         N/A     59  57  93 NW5       29.87S
$$

SDZ017-020-022-023-036>040-048>070-290600-
SOUTHEAST SOUTH DAKOTA

CITY           SKY/WX    TMP DP  RH WIND       PRES   REMARKS
SIOUX FALLS    CLOUDY    59  57  93 W5        29.94R
HURON          PTCLDY    59  58  96 SW6       29.92R
CHAMBERLAIN    CLOUDY    63  62  97 CALM      29.96S
MITCHELL       CLEAR     61  59  93 SW7       29.95R
YANKTON        CLOUDY    57  55  94 W8        29.96R
$$

ABBREVIATIONS USED IN REMARKS
   TC - TEMPERATURE IN CELSIUS
  WCI - WIND CHILL INDEX
   HX - HEAT INDEX
  VSB - VISIBILITY




USA.gov is the U.S. government's official web portal to all federal, state and local government web resources and services.